Terminal Aerodrome Forecast
Issued by NWS St Louis, MO

Home | Current Version | Previous Version | Text Only | Print | Product List | Glossary On
Versions: 1 2 3 4 5 6 7 8 9 10 11 12 13 14 15 16 17 18 19 20 21 22 23 24 25 26 27 28 29
000
FTUS43 KLSX 250900 AAB
TAFSTL
TAF AMD
KSTL 250924Z 2509/2612 28010G18KT P6SM SKC
      TEMPO 2511/2512 BKN025
     FM251200 28009KT P6SM SKC
     FM260000 VRB04KT P6SM SCT250=

USA.gov is the U.S. government's official web portal to all federal, state and local government web resources and services.